WetterOnline ( https://www.wetteronline.at )

Wetter aktuell Hoyerswerda

Aktuelles Wetter: Hoyerswerda (116m)

6-stündlich | Neueste Meldungen
Ortszeit Temperatur Wetter
Mo, 21.10. 14:00 20.1° C wolkig
Mo, 21.10. 8:00 9.5° C leicht bewölkt
Mo, 21.10. 2:00 8.3° C Nebel
So, 20.10. 20:00 14.9° C wolkig
So, 20.10. 14:00 20.6° C fast wolkenlos
So, 20.10. 8:00 10.1° C bedeckt
So, 20.10. 2:00 12.7° C wolkig
Sa, 19.10. 20:00 13.7° C bedeckt
Ortszeit Temperatur Wetter
Mo, 21.10. 19:00 14.1° C bewölkt
Mo, 21.10. 18:50 14.1° C bewölkt
Mo, 21.10. 18:40 13.9° C bedeckt
Mo, 21.10. 18:30 15.2° C bedeckt
Mo, 21.10. 18:20 15.2° C bedeckt
Mo, 21.10. 18:10 15.5° C bedeckt
Mo, 21.10. 18:00 15.8° C bedeckt
Mo, 21.10. 17:30 17.9° C bedeckt
Mo, 21.10. 17:00 18.6° C bedeckt
Mo, 21.10. 16:30 19.0° C bedeckt
Mo, 21.10. 16:00 19.5° C wolkig
Ortszeit Relative Feuchte Sichtweite
Mo, 21.10. 14:00 62% 65 km
Mo, 21.10. 8:00 100% 8 km
Mo, 21.10. 2:00 100% 0.4 km
So, 20.10. 20:00 81% 35 km
So, 20.10. 14:00 57% 40 km
So, 20.10. 8:00 92% 20 km
So, 20.10. 2:00 83% 35 km
Sa, 19.10. 20:00 77% 45 km
Ortszeit Relative Feuchte Sichtweite
Mo, 21.10. 19:00 94% 12 km
Mo, 21.10. 18:50 94% -
Mo, 21.10. 18:40 93% -
Mo, 21.10. 18:30 89% 28 km
Mo, 21.10. 18:20 89% -
Mo, 21.10. 18:10 87% -
Mo, 21.10. 18:00 84% 28 km
Mo, 21.10. 17:30 76% 30 km
Mo, 21.10. 17:00 72% 35 km
Mo, 21.10. 16:30 69% 40 km
Mo, 21.10. 16:00 66% 40 km
Ortszeit Niederschlagsmenge Niederschlagsart
Mo, 21.10. 14:00 0.0 l/m2 in 6 Std. -
Mo, 21.10. 8:00 0.0 l/m2 in 12 Std. -
Mo, 21.10. 2:00 0.0 l/m2 in 6 Std. -
So, 20.10. 20:00 0.0 l/m2 in 12 Std. -
So, 20.10. 14:00 0.0 l/m2 in 6 Std. -
So, 20.10. 8:00 0.0 l/m2 in 12 Std. -
So, 20.10. 2:00 0.0 l/m2 in 6 Std. -
Sa, 19.10. 20:00 0.1 l/m2 in 12 Std. -
Ortszeit Niederschlagsmenge Niederschlagsart
Mo, 21.10. 19:00 0.0 l/m2 in 1 Std. -
Mo, 21.10. 18:50 keine Meldung -
Mo, 21.10. 18:40 keine Meldung -
Mo, 21.10. 18:30 0.0 l/m2 in 1 Std. -
Mo, 21.10. 18:20 keine Meldung -
Mo, 21.10. 18:10 keine Meldung -
Mo, 21.10. 18:00 0.0 l/m2 in 1 Std. -
Mo, 21.10. 17:30 0.0 l/m2 in 1 Std. -
Mo, 21.10. 17:00 0.0 l/m2 in 1 Std. -
Mo, 21.10. 16:30 0.0 l/m2 in 1 Std. -
Mo, 21.10. 16:00 0.0 l/m2 in 1 Std. -
Ortszeit Stärke Spitze Richtung
km/h Bft. km/h Grad Sektor
Mo, 21.10. 14:00 11 2 18 230° SW
Mo, 21.10. 8:00 9 2 11 130° SO
Mo, 21.10. 2:00 4 1 14 90° O
So, 20.10. 20:00 7 2 25 110° O
So, 20.10. 14:00 9 2 24 180° S
So, 20.10. 8:00 0 0 22 - -
So, 20.10. 2:00 11 2 18 160° S
Sa, 19.10. 20:00 7 2 18 140° SO
Ortszeit Stärke Spitze Richtung
km/h Bft. km/h Grad Sektor
Mo, 21.10. 19:00 4 1 7 170° S
Mo, 21.10. 18:50 4 1 - 170° S
Mo, 21.10. 18:40 4 1 - 230° SW
Mo, 21.10. 18:30 4 1 7 280° W
Mo, 21.10. 18:20 4 1 - 280° W
Mo, 21.10. 18:10 4 1 - 260° W
Mo, 21.10. 18:00 0 0 7 - -
Mo, 21.10. 17:30 4 1 7 10° N
Mo, 21.10. 17:00 9 2 17 260° W
Mo, 21.10. 16:30 6 1 7 290° W
Mo, 21.10. 16:00 4 1 14 310° NW
Ortszeit Untergrenze Bedeckung Gattung
total tief tief mittel hoch
Mo, 21.10. 14:00 8100 m 8/8 0/8 - - -
Mo, 21.10. 8:00 6000 m 2/8 2/8 - - -
Mo, 21.10. 2:00 7800 m 8/8 0/8 - - -
So, 20.10. 20:00 7800 m 8/8 0/8 - - -
So, 20.10. 14:00 8100 m 2/8 0/8 - - -
So, 20.10. 8:00 3000 m 8/8 8/8 - - -
So, 20.10. 2:00 3000 m 6/8 6/8 - - -
Sa, 19.10. 20:00 4500 m 8/8 8/8 - - -
Ortszeit Bedeckungsgrad in Achtel und Wolkenuntergrenze
Mo, 21.10. 19:00 5(4200m) 8(9000m) 8(10500m)
Mo, 21.10. 18:50 5(4200m) 8(9000m) 8(10500m)
Mo, 21.10. 18:40 8(4200m) 8(6000m) 8(7800m)
Mo, 21.10. 18:30 8(4200m) 8(6000m) 8(9000m)
Mo, 21.10. 18:20 8(4200m) 8(6000m) 8(9000m)
Mo, 21.10. 18:10 7(4200m) 8(4800m) 8(6600m)
Mo, 21.10. 18:00 8(4800m) 8(6600m) 8(9000m)
Mo, 21.10. 17:30 5(4500m) 8(5100m) 8(6600m)
Mo, 21.10. 17:00 1(4500m) 8(6600m) 8(9000m)
Mo, 21.10. 16:30 6(4800m) 8(6000m)
Mo, 21.10. 16:00 5(6000m) 7(7800m) 7(9000m)
Ortszeit Luftdruck NN (hPa) Tendenz (hPa in 3 Std.)
Mo, 21.10. 14:00 1018 + 1,1
Mo, 21.10. 8:00 1015 + 1,0
Mo, 21.10. 2:00 1013 + 0,7
So, 20.10. 20:00 1012 + 0,4
So, 20.10. 14:00 1011 - 0,4
So, 20.10. 8:00 1012 + 0,3
So, 20.10. 2:00 1011 + 0,2
Sa, 19.10. 20:00 1011 + 0,1
Ortszeit Luftdruck NN (hPa) Tendenz (hPa in 3 Std.)
Mo, 21.10. 19:00 1020 + 1,4
Mo, 21.10. 18:50 1020 keine Meldung
Mo, 21.10. 18:40 1020 keine Meldung
Mo, 21.10. 18:30 1020 + 1,0
Mo, 21.10. 18:20 1020 keine Meldung
Mo, 21.10. 18:10 1020 keine Meldung
Mo, 21.10. 18:00 1019 + 0,4
Mo, 21.10. 17:30 1019 + 0,3
Mo, 21.10. 17:00 1020 + 1,1
Mo, 21.10. 16:30 1019 + 1,0
Mo, 21.10. 16:00 1019 + 0,8
Ortszeit Schneehöhe (cm)
Mo, 21.10. 14:00 0
Mo, 21.10. 8:00 0
Mo, 21.10. 2:00 0
So, 20.10. 20:00 0
So, 20.10. 14:00 0
So, 20.10. 8:00 0
So, 20.10. 2:00 0
Sa, 19.10. 20:00 0
Ortszeit Schneehöhe (cm)
Mo, 21.10. 19:00 0
Mo, 21.10. 18:50 0
Mo, 21.10. 18:40 0
Mo, 21.10. 18:30 0
Mo, 21.10. 18:20 0
Mo, 21.10. 18:10 0
Mo, 21.10. 18:00 0
Mo, 21.10. 17:30 0
Mo, 21.10. 17:00 0
Mo, 21.10. 16:30 0
Mo, 21.10. 16:00 0
Link zu dieser Seite / Seite empfehlen

Das Wetter in ...